Terug naar catalogus

STARLINK-35588

ActiefCommunicatieVLEO
NORAD 66424·PAYLOAD·🇺🇸 United States

Gelanceerd Nov 11, 2025 vanaf Cape Canaveral Space Force Station

Loading…

Volgende Passages (komende 24 uur)

TLE

VersSource: CelesTrak SupGP

Epoch: Sep 14, 2026, 23:07 UTC

1 66424C 25259C   26257.96368056  .00028944  00000+0  10485-2 0  2573
2 66424  43.0024 285.5364 0001618 270.8912 214.3017 15.27559804    10

Volg STARLINK-35588 in realtime met AllMySat

Download on the App Store